Theta_e
333 336 338 341 340 339 340 339 341 341 341 340 339 341 341 342 341 341 341 341 340 341 340 340 340 339 339 341 342 343 344 343 343 344 344 343 342 342 343 345 346 346 347 348 348 347 349 347 348 349 347 347 347 347 347 347 348 347 347 346 344 343 342 342 342 342 341 340 340 340 343 344 344 347 346 347 349 348 345 345 345 344 343 346 348
329 330 334 335 339 338 340 340 341 342 342 343 342 342 343 342 341 341 340 339 340 341 341 340 340 341 343 343 343 344 344 344 344 345 345 343 343 344 344 345 345 346 348 349 349 349 348 349 348 349 348 347 347 347 347 348 347 347 346 345 344 343 342 342 342 341 341 341 343 345 343 343 344 346 345 348 349 348 345 344 344 341 341 348 347
329 332 334 337 338 339 339 340 340 341 342 342 343 344 342 342 341 341 339 340 341 342 341 341 342 345 344 343 345 344 343 344 345 346 344 344 344 344 344 345 345 347 348 349 349 349 350 348 349 348 346 345 346 346 347 348 348 346 345 344 342 341 342 341 340 340 339 339 341 341 341 345 344 345 345 347 349 348 345 345 345 345 344 347 346
329 331 331 337 338 340 340 339 339 340 341 342 344 343 341 342 341 340 340 342 342 344 344 345 345 345 344 345 344 344 344 346 346 345 346 345 345 344 344 345 346 348 349 350 351 350 351 347 349 346 346 347 346 346 347 347 346 344 342 342 340 340 340 339 339 339 339 339 339 335 332 331 340 345 344 348 348 348 345 344 344 344 347 346 346
327 328 329 332 335 339 342 341 341 341 343 345 344 342 341 340 340 342 342 341 343 344 345 346 346 345 344 344 344 344 345 345 345 345 345 345 345 345 344 344 347 348 349 350 348 348 348 347 347 346 346 346 346 346 346 346 344 343 342 341 340 339 338 337 338 339 339 338 337 333 328 331 335 343 344 349 348 346 344 344 344 344 346 345 346
327 328 328 332 333 333 340 342 343 343 345 345 345 341 340 340 342 344 342 342 343 344 345 345 345 345 342 342 342 342 346 346 345 344 345 345 345 346 345 345 347 349 351 350 349 349 347 346 346 347 346 345 345 345 344 343 343 343 342 341 339 338 338 338 338 338 337 335 334 328 328 329 333 338 344 348 348 345 343 343 344 345 344 345 345
328 328 328 331 332 332 337 342 344 344 344 345 342 341 341 340 340 343 342 343 344 344 345 345 343 342 341 341 341 342 342 344 345 344 345 345 345 345 345 346 348 350 351 350 350 349 347 346 346 346 346 345 346 344 343 343 343 343 343 342 340 339 339 338 338 337 334 330 326 326 328 330 331 333 343 348 347 346 344 343 344 344 344 343 343
330 330 330 331 332 333 337 340 344 344 344 344 342 340 340 340 340 341 342 344 345 343 345 343 342 342 342 342 342 342 343 344 344 344 345 345 344 344 344 345 347 348 350 351 351 350 348 348 348 346 345 344 344 343 344 343 343 343 343 342 341 339 339 338 337 334 332 326 325 326 328 329 330 333 343 345 345 344 343 343 345 344 343 343 340
329 330 330 331 331 334 337 340 344 344 343 342 341 340 340 340 340 340 342 342 343 343 342 343 343 342 342 341 341 341 342 343 343 344 344 344 342 342 342 343 343 345 347 348 349 348 346 345 346 346 344 343 343 342 343 343 343 342 342 341 340 339 338 336 333 330 327 325 325 326 328 330 332 334 343 344 343 342 341 340 340 342 342 341 341
327 329 331 330 331 334 337 341 343 343 342 342 341 341 340 340 339 339 339 341 340 341 340 343 343 342 341 341 342 342 343 343 343 343 344 343 342 342 342 342 342 343 346 346 346 346 345 344 343 344 344 342 342 342 342 342 342 341 341 340 340 339 336 334 331 329 324 325 326 327 331 335 332 334 341 342 343 343 340 338 338 339 340 340 340
327 329 331 331 330 334 338 341 343 342 342 341 340 340 340 339 339 339 338 339 340 341 341 340 341 341 341 340 342 343 342 342 343 343 343 343 343 342 341 340 341 342 343 343 344 344 344 345 343 343 343 341 340 341 341 341 340 339 339 340 339 337 334 331 328 323 324 325 325 326 332 335 330 332 342 342 341 340 340 338 339 340 339 339 340
327 328 331 331 331 334 337 340 341 341 341 340 339 339 340 340 338 339 338 339 339 341 339 340 340 340 339 339 341 343 342 341 342 342 343 342 342 342 341 340 340 340 341 342 342 343 343 343 342 342 340 339 339 339 340 339 339 338 339 339 338 335 332 329 322 321 321 320 321 320 323 328 331 336 342 341 340 341 340 340 339 339 338 339 339
329 329 332 331 328 332 335 338 342 341 340 339 339 339 339 338 338 338 338 338 337 339 338 339 339 338 338 339 341 342 342 342 342 342 342 342 341 341 340 340 340 340 340 341 342 343 343 342 341 341 339 339 338 337 338 337 338 338 339 338 335 333 329 326 320 319 320 320 322 322 323 325 330 338 339 339 339 340 340 339 338 338 337 338 337
330 330 331 332 329 329 333 336 340 341 340 338 337 338 337 336 337 337 336 337 337 337 338 338 338 336 335 339 342 342 342 342 342 342 341 342 341 340 339 339 340 340 340 339 341 341 342 342 340 340 338 336 336 336 336 338 339 339 337 335 333 331 328 326 323 321 322 322 323 323 324 327 333 339 339 339 339 338 338 337 337 337 336 336 336
330 330 331 332 331 329 328 333 336 338 339 339 337 337 336 335 337 338 337 336 336 339 337 336 336 336 335 339 341 341 341 341 341 341 341 341 340 338 338 339 339 338 339 339 340 340 341 341 340 339 337 336 335 335 337 338 338 337 335 333 331 329 327 323 324 323 323 323 322 325 327 330 337 336 338 338 338 337 336 336 336 336 335 336 335
328 330 331 333 331 327 327 327 332 336 336 336 336 339 339 337 340 337 335 338 335 333 335 335 335 334 336 338 339 339 341 340 340 340 340 339 339 338 337 337 337 337 337 337 340 340 340 340 339 338 337 336 334 335 336 336 336 335 334 333 331 329 326 324 323 322 321 322 322 324 328 330 336 336 336 337 336 335 335 335 334 334 334 334 333
327 329 332 332 330 329 327 327 328 328 329 329 330 333 336 340 341 339 339 336 335 333 332 334 335 335 336 338 338 339 338 339 339 340 339 338 338 337 336 335 337 338 337 336 337 338 339 338 337 337 337 334 334 335 336 336 335 334 333 331 330 328 325 323 322 320 321 321 322 323 325 328 334 335 336 336 336 335 333 333 333 334 333 333 332
326 329 331 331 330 330 328 327 326 325 325 325 326 329 332 336 337 337 335 334 333 333 335 335 335 334 336 335 337 336 336 339 339 339 338 338 337 336 335 335 337 336 336 335 335 336 337 337 337 336 335 333 334 335 335 335 334 333 331 330 328 326 323 321 320 319 319 322 320 321 323 331 334 334 336 335 335 334 332 331 332 332 332 331 330
328 329 330 330 330 329 329 326 323 324 324 325 324 325 329 332 334 335 335 334 334 335 336 335 334 335 334 331 329 329 330 331 334 335 337 335 333 332 333 335 336 335 335 334 334 334 335 335 335 335 333 333 334 334 334 334 333 331 330 328 326 323 322 320 318 318 318 318 319 319 324 334 334 335 335 335 334 332 331 330 330 331 331 330 329
329 329 328 329 329 328 328 326 324 325 324 325 325 325 326 328 331 332 333 333 334 333 332 331 327 325 326 325 323 324 324 325 324 328 328 332 329 327 330 334 333 334 334 333 332 333 333 334 334 334 333 332 332 332 331 332 331 329 328 325 322 319 318 317 316 316 317 318 319 320 331 334 334 334 334 334 333 331 330 330 329 329 329 329 329
328 329 328 328 328 328 326 326 326 326 325 325 325 325 325 326 327 326 326 327 329 329 328 323 320 319 320 319 320 326 325 326 325 324 320 324 321 324 329 333 333 334 333 332 331 331 332 333 333 333 332 331 328 328 328 329 329 328 326 322 319 318 317 316 316 315 316 317 320 322 331 334 333 334 334 333 332 330 330 328 328 328 328 328 328
324 328 328 328 328 327 327 325 325 326 326 326 325 324 324 325 324 324 323 323 323 322 322 323 319 323 321 323 324 322 323 323 322 319 323 323 324 322 326 332 334 333 331 330 326 326 328 331 332 332 331 328 322 319 321 323 325 324 322 319 317 316 316 316 316 315 316 317 319 325 331 333 333 333 333 332 330 328 328 328 327 328 328 328 328
324 327 328 328 327 326 326 325 325 325 326 326 325 324 323 323 323 323 322 322 319 319 322 322 324 324 323 323 321 322 321 320 320 321 321 320 323 322 325 330 332 331 330 330 329 329 330 331 331 330 327 322 315 315 317 317 317 317 316 316 315 315 314 315 315 315 317 317 319 327 331 332 332 333 333 330 329 328 327 328 328 328 328 328 327
325 327 327 328 327 325 326 326 325 325 325 325 324 324 323 323 322 322 322 322 321 321 322 322 322 323 322 321 321 320 319 318 315 315 317 323 323 321 323 325 326 326 325 326 327 329 330 330 328 326 320 315 314 314 315 315 315 316 316 315 314 313 314 313 313 314 316 318 320 328 332 333 333 332 331 330 328 328 327 327 327 327 329 329 328
326 328 327 326 326 325 325 326 325 325 325 324 323 323 323 323 322 322 321 322 322 323 322 322 321 320 320 321 320 320 320 320 320 321 323 324 324 325 325 325 326 324 322 323 322 322 321 319 317 315 313 313 313 313 314 314 314 315 314 313 313 312 312 312 312 312 314 317 321 327 331 332 332 332 331 329 328 327 326 327 327 327 328 328 327
325 326 326 326 325 326 325 326 326 326 325 324 323 321 322 322 322 321 321 321 322 322 322 321 320 320 320 320 320 321 320 320 319 319 320 322 322 322 321 322 322 321 321 319 319 318 316 314 314 313 312 312 312 312 313 314 314 314 313 313 312 311 311 310 312 313 313 316 320 324 328 331 330 331 332 331 328 328 328 328 328 327 327 327 327
323 325 326 326 325 326 325 326 326 326 325 325 323 321 322 322 322 321 321 321 321 321 321 321 320 319 319 319 320 320 320 319 319 318 318 320 320 320 319 320 320 319 319 318 317 316 314 313 312 311 311 311 311 311 312 313 313 313 313 312 311 310 310 310 310 311 312 316 318 321 324 327 330 330 330 330 329 330 329 328 328 327 326 326 326
322 324 325 326 322 325 326 325 326 325 324 325 323 323 322 321 320 318 321 319 319 321 321 321 320 319 319 320 319 320 319 318 318 317 316 317 318 318 318 318 318 318 317 317 316 314 313 313 312 311 311 310 310 310 311 312 312 312 312 311 310 310 310 309 310 309 311 315 318 319 323 327 329 329 329 329 330 330 329 328 328 327 325 326 325
319 322 324 325 325 325 325 325 325 325 324 324 323 323 322 321 318 319 320 318 320 321 322 321 320 319 320 320 319 319 318 317 316 316 317 316 315 316 316 315 315 315 315 314 314 313 312 312 312 311 311 310 310 310 310 310 311 311 311 310 310 308 308 308 309 308 309 311 316 317 321 327 331 330 329 328 328 329 328 329 329 328 327 326 325
320 321 323 325 326 326 325 325 325 325 324 323 323 323 322 321 320 319 320 318 319 320 321 320 319 319 319 320 320 319 318 318 316 316 316 315 314 314 313 313 313 312 313 312 311 312 311 311 310 311 311 310 310 309 309 309 310 310 310 309 308 307 306 306 306 306 306 310 312 314 317 321 327 332 329 326 328 328 327 329 330 330 329 327 326
320 319 323 325 324 325 325 324 325 322 324 323 322 322 322 321 320 320 319 320 318 319 320 320 318 317 319 319 319 318 318 317 317 317 316 315 314 313 312 312 311 311 312 311 310 311 311 311 311 310 310 310 309 308 309 309 308 308 306 307 305 304 304 304 304 305 306 308 310 311 313 316 320 326 330 328 327 328 328 328 328 327 326 326 327
318 319 322 325 325 325 325 324 324 324 322 323 321 322 322 322 321 321 319 320 318 319 319 318 316 316 317 317 318 318 316 317 317 317 316 314 312 311 309 310 309 309 310 308 308 309 310 309 309 309 309 310 309 308 309 308 307 306 304 305 303 304 302 302 304 304 304 306 307 308 309 311 314 318 323 329 330 325 327 327 327 326 325 323 324
319 320 322 322 324 325 325 324 325 324 323 323 322 322 322 322 321 321 320 320 319 319 318 318 316 315 316 315 316 317 316 316 317 316 313 313 310 309 308 308 306 306 306 306 306 305 306 306 306 307 308 308 308 307 308 308 306 303 304 303 303 302 301 302 303 303 303 303 303 304 306 308 308 312 315 320 327 328 325 325 327 327 326 324 323
318 319 321 322 324 325 325 324 324 324 323 324 322 322 322 322 322 322 320 320 320 319 318 317 314 315 315 314 314 313 312 314 314 313 313 310 308 307 306 305 304 305 304 304 303 303 304 305 304 306 306 307 307 306 306 306 304 302 303 300 301 299 298 302 301 301 302 302 301 301 302 304 305 307 309 314 316 321 324 326 326 325 325 323 323
316 317 319 321 322 325 324 325 322 324 322 323 322 322 322 322 322 322 321 321 320 320 319 317 314 314 314 314 314 313 313 312 312 312 310 308 306 305 305 305 303 303 302 301 302 301 303 303 302 304 302 303 304 304 306 305 304 305 304 303 302 299 298 299 298 298 299 299 298 299 300 300 302 304 304 304 308 313 318 321 324 325 324 324 324
316 317 318 320 322 324 324 324 323 323 323 323 323 323 322 322 322 318 321 321 320 319 319 318 316 313 313 314 315 314 313 313 312 310 309 308 307 305 304 304 303 303 301 300 301 301 300 300 300 303 302 300 302 301 302 303 303 304 301 302 302 301 300 297 298 298 296 296 296 297 297 297 298 299 302 300 301 305 313 318 321 324 325 325 325
315 316 317 318 320 323 322 324 322 323 323 323 324 323 322 322 322 321 321 320 320 319 319 319 317 314 313 314 314 314 313 313 312 310 309 307 307 305 304 304 303 303 302 300 300 300 300 300 297 300 302 299 301 300 299 301 301 301 299 299 299 301 301 302 300 300 298 298 296 296 297 296 297 301 296 296 298 298 306 314 319 320 318 322 324
313 315 317 318 320 322 323 323 323 323 323 323 323 323 322 322 322 322 317 320 320 319 318 318 316 315 313 312 313 313 313 313 311 310 307 306 305 304 302 302 301 302 301 300 300 298 299 299 297 295 300 300 299 300 299 298 300 298 297 297 297 297 297 298 298 299 301 300 299 300 300 298 297 297 297 295 294 296 300 304 312 312 310 317 320
312 313 315 317 318 321 321 322 323 323 322 322 322 322 322 322 322 321 319 320 319 318 317 316 316 315 313 312 312 313 312 312 310 308 306 305 304 303 302 300 300 299 299 299 298 298 297 296 297 294 296 299 299 299 298 298 298 296 294 292 293 293 294 294 295 296 296 298 298 299 297 297 297 297 297 296 294 295 298 298 300 300 303 313 318
311 312 312 314 317 318 320 321 322 323 322 320 321 321 320 317 318 319 318 317 318 314 316 315 315 314 312 311 312 312 311 310 308 307 306 304 303 302 302 300 299 299 299 299 298 297 296 295 295 296 294 293 294 297 296 294 291 291 291 289 288 291 292 292 293 293 293 296 296 296 298 294 294 294 295 295 294 294 295 295 297 298 297 305 312
309 310 311 312 315 318 319 320 320 322 321 319 318 318 318 316 317 317 317 317 316 315 314 315 314 314 311 311 311 311 310 308 306 305 304 302 302 301 301 299 299 299 300 300 299 298 297 296 294 295 295 293 291 293 294 296 294 290 288 287 288 288 290 290 291 292 293 293 292 294 293 295 294 296 295 293 294 294 294 295 295 295 296 296 298
306 308 310 311 313 316 318 320 321 320 320 320 319 318 319 317 317 317 317 316 315 313 313 314 314 313 310 310 310 310 309 307 304 304 302 302 300 300 300 299 298 298 299 298 297 296 296 295 294 293 293 294 291 292 294 296 291 291 291 290 287 285 288 288 289 291 292 292 293 294 295 295 296 295 293 294 295 296 294 293 293 294 294 295 295
307 308 309 310 311 314 317 319 320 320 320 320 320 318 319 318 318 318 317 315 316 316 316 314 313 312 310 309 309 309 308 306 305 303 304 303 301 301 300 299 298 297 296 296 296 296 296 295 294 295 291 290 290 292 294 295 288 287 285 285 283 290 287 286 287 288 289 291 291 293 293 294 295 294 292 292 293 293 293 293 294 294 294 295 295
306 307 308 309 311 312 316 318 319 320 319 318 315 320 319 318 319 319 318 316 314 314 315 313 313 312 309 309 308 308 308 307 306 305 305 304 302 302 301 300 299 297 297 295 295 296 295 294 293 293 293 292 289 290 291 290 289 287 287 283 280 282 281 281 284 286 288 288 289 291 291 292 291 289 288 291 290 290 290 290 292 293 294 294 294
306 307 308 309 310 311 314 317 318 319 319 316 317 318 316 316 316 316 315 313 312 312 311 310 311 310 310 308 308 308 308 307 307 306 305 304 303 302 301 300 299 298 298 296 296 296 296 295 294 293 293 294 290 289 291 289 289 289 286 283 283 283 281 282 284 286 286 287 286 287 289 290 290 289 289 288 287 286 287 287 287 288 289 290 292
306 307 309 310 311 311 313 316 318 318 318 318 317 317 315 315 314 312 309 309 306 307 305 306 308 308 309 309 309 309 308 308 307 306 305 303 303 302 301 300 299 298 299 298 297 296 296 294 294 294 294 294 294 291 289 290 289 289 288 285 285 285 284 285 284 284 285 286 286 286 285 286 286 287 287 286 287 287 287 288 287 288 288 289 289
304 308 309 310 311 311 312 315 317 317 318 317 317 315 316 316 314 314 312 311 309 309 310 310 310 310 310 309 309 309 309 308 307 307 306 304 304 303 302 301 300 300 298 298 297 297 296 295 294 293 294 294 292 290 290 290 289 291 291 289 288 287 286 284 284 284 284 285 285 286 287 285 285 285 286 286 286 286 286 287 287 287 287 288 288
303 306 308 309 310 310 311 313 315 314 317 316 316 315 315 316 315 314 312 312 311 310 310 310 311 309 309 308 308 308 308 308 308 307 306 305 304 304 303 303 302 301 299 300 298 297 296 296 294 293 292 293 292 291 290 290 290 289 290 288 287 287 286 285 282 284 283 284 286 284 287 286 287 286 285 285 285 285 285 285 286 286 286 286 287
302 304 306 308 310 310 310 312 314 314 315 315 315 315 314 315 315 315 312 312 312 311 310 309 309 308 309 308 307 307 307 308 308 307 307 306 304 304 304 303 303 301 300 301 299 298 296 296 295 293 292 292 292 291 291 290 290 289 289 286 286 285 285 284 282 282 281 281 282 282 286 286 287 288 286 286 286 285 285 285 285 286 286 286 286
302 303 305 307 308 309 309 310 311 313 314 313 314 315 315 313 314 314 313 311 311 310 310 309 309 307 308 306 306 306 306 306 307 307 306 306 305 305 305 304 303 302 300 301 300 298 298 297 297 296 295 294 292 291 291 291 291 290 291 290 287 285 286 286 284 280 280 280 282 282 282 285 286 285 285 286 287 286 286 285 285 285 285 285 285
301 302 303 304 306 308 309 309 311 312 312 312 313 313 314 314 314 314 313 312 311 309 308 308 308 306 306 305 305 305 306 306 306 306 306 306 306 305 305 305 304 301 301 302 300 299 299 298 298 298 297 295 293 292 292 291 290 289 290 290 290 289 288 285 283 280 279 279 280 281 281 281 283 285 286 285 287 287 287 286 286 284 285 285 285
Wind_Speed
2 3 4 9 12 11 12 10 10 12 13 12 12 13 15 12 13 13 13 13 12 11 11 12 13 12 11 10 8 7 6 5 5 5 4 3 3 2 1 3 5 7 10 11 13 15 14 16 15 17 21 20 22 21 22 22 21 21 21 20 19 18 17 16 16 14 12 12 13 14 14 12 13 13 13 14 16 13 12 11 10 8 6 11 15
4 3 3 4 12 11 12 13 12 16 16 19 19 17 16 16 15 15 13 11 11 11 11 11 12 13 13 10 9 7 7 6 6 5 5 4 3 2 3 4 6 9 11 13 17 18 17 14 10 16 17 21 21 22 22 22 21 21 20 20 19 18 17 15 14 13 12 10 9 9 12 13 13 13 14 15 16 14 12 12 11 6 4 15 16
2 3 3 5 12 14 12 14 13 14 13 13 16 19 16 15 15 13 13 14 13 13 13 12 12 13 13 12 10 9 8 7 6 6 5 5 4 4 5 7 9 11 13 16 19 18 19 18 17 15 21 20 21 22 22 22 21 20 20 20 19 18 17 16 14 13 12 11 10 9 9 11 11 13 14 16 17 15 13 12 11 11 10 17 15
4 5 4 7 12 13 13 13 12 13 13 15 16 17 16 14 14 12 14 13 13 14 14 13 12 12 12 12 11 9 8 7 8 6 7 6 6 7 7 9 11 13 16 18 20 21 19 20 19 21 21 21 21 22 22 21 21 20 21 20 19 18 17 16 14 13 12 11 10 7 4 3 6 11 15 17 18 16 12 11 11 14 18 17 18
5 5 6 6 8 10 13 16 15 15 16 18 16 15 15 15 15 14 13 12 13 14 13 14 14 13 13 13 12 11 10 9 8 7 7 7 7 8 8 11 12 17 18 19 21 22 21 20 20 23 21 22 22 22 21 21 21 22 21 20 19 18 17 16 14 13 11 10 9 6 4 3 4 11 15 19 18 15 13 13 14 16 17 18 18
5 5 6 7 8 9 12 13 17 18 19 17 15 14 14 14 13 11 13 12 12 13 14 15 15 15 14 13 12 12 13 10 9 8 8 10 9 10 10 12 14 19 19 21 21 22 21 19 20 22 23 23 22 21 20 21 22 22 21 20 20 19 17 15 14 13 11 10 8 4 4 3 3 5 17 19 18 15 14 15 17 16 18 19 18
6 5 7 7 8 8 11 13 16 17 18 15 14 13 13 13 12 10 13 13 13 14 15 15 15 15 14 13 12 10 11 11 10 10 9 12 12 11 9 14 17 20 22 23 23 24 26 23 22 23 24 23 21 20 21 21 22 22 22 21 19 18 17 15 14 12 11 6 4 4 4 4 3 3 16 18 17 17 16 17 18 18 18 17 17
5 5 7 8 8 9 11 10 15 17 17 14 14 13 13 13 11 11 12 13 14 15 16 14 13 13 14 14 12 12 12 12 11 10 11 13 12 11 11 15 19 19 20 22 22 23 22 19 20 22 22 21 20 20 20 21 22 22 21 20 19 18 17 15 13 12 10 6 5 5 5 4 3 4 16 18 17 16 17 17 17 18 19 18 13
6 7 7 7 8 11 12 10 13 14 14 13 12 12 13 13 13 13 13 11 13 14 15 14 14 13 12 13 13 13 12 12 11 10 13 14 14 13 11 12 14 18 20 21 22 21 22 22 21 22 22 21 20 19 20 20 21 21 21 19 17 18 16 14 13 10 7 5 4 5 5 4 5 4 16 19 19 19 18 15 14 19 18 15 12
7 7 7 7 7 9 12 11 12 13 14 13 13 11 10 11 11 10 11 12 11 11 10 11 14 13 12 11 13 14 13 13 13 12 13 15 15 15 12 12 16 19 21 21 22 23 22 22 22 21 20 20 20 19 19 20 21 20 18 17 17 17 16 14 12 7 6 5 5 5 6 8 5 5 16 19 19 16 14 11 8 10 10 14 16
8 8 7 6 6 8 10 10 12 13 15 13 12 12 12 11 11 11 11 12 13 10 12 11 12 11 11 11 12 14 15 14 14 13 14 15 16 18 16 13 11 16 22 23 24 23 22 21 21 21 20 20 19 18 19 21 19 18 18 19 18 18 16 13 9 5 6 6 5 4 6 8 4 4 19 21 18 16 15 13 12 14 17 18 18
8 7 5 4 5 8 9 7 11 13 14 12 11 11 12 12 12 13 13 14 14 16 12 9 7 11 11 11 11 13 15 16 15 15 16 16 18 20 20 17 14 12 19 22 23 23 22 21 21 21 20 18 18 17 20 19 17 18 19 20 18 17 15 12 7 6 6 6 4 3 3 4 4 9 19 20 17 18 15 14 15 18 18 18 18
8 7 5 4 3 7 8 7 9 12 12 11 11 12 12 12 12 14 12 13 12 11 15 13 11 11 9 11 11 13 14 15 17 17 16 17 18 20 21 21 18 14 14 17 21 22 23 22 21 20 18 16 17 18 16 15 16 19 20 19 18 16 13 11 7 7 6 5 4 3 4 3 4 11 15 15 16 18 16 15 16 16 16 18 17
7 7 5 3 3 6 7 6 7 8 10 11 11 12 12 11 11 10 12 12 11 13 11 13 12 12 10 12 12 13 14 16 18 18 17 17 18 20 22 21 19 15 15 17 20 20 21 22 22 20 18 16 17 15 16 17 18 20 19 19 17 15 12 8 7 7 7 5 4 3 4 3 6 14 16 16 15 17 18 16 16 17 17 17 16
7 6 5 3 4 4 7 9 7 6 6 5 9 12 11 10 10 8 5 12 12 13 12 13 10 11 12 13 12 14 16 17 18 18 18 18 18 20 22 21 19 18 17 17 18 19 20 21 19 18 18 17 14 15 17 19 19 19 19 17 15 13 12 7 6 6 7 5 4 4 5 4 11 15 18 18 18 17 17 16 17 17 18 19 17
5 6 5 3 4 3 4 6 7 6 5 7 8 5 4 9 6 5 4 8 10 2 12 13 12 10 12 12 12 14 16 17 17 18 19 19 18 18 20 23 21 19 17 16 20 20 20 20 20 18 18 17 15 15 17 18 19 18 17 16 13 12 12 8 7 7 6 5 4 4 6 6 12 17 18 19 18 17 17 16 16 16 17 16 15
4 4 5 4 4 4 4 2 5 8 7 8 7 5 3 6 8 8 6 14 17 6 7 9 9 8 12 12 11 10 12 15 14 13 16 20 20 19 19 20 22 21 20 19 18 18 20 21 21 20 20 17 16 16 17 18 18 17 15 14 13 13 13 10 7 6 6 5 3 4 5 5 10 16 18 19 18 17 16 16 17 18 19 16 15
3 4 5 5 5 4 3 4 6 6 5 5 5 5 5 9 12 13 16 16 13 11 12 11 10 9 8 7 8 8 8 10 11 11 16 18 20 20 20 21 21 19 20 19 20 18 20 20 19 20 19 18 18 18 17 17 17 16 15 14 13 14 14 11 7 6 5 4 4 3 3 7 13 16 17 18 18 16 15 15 16 17 18 16 15
4 5 5 5 6 5 4 4 5 5 6 4 3 4 5 9 15 15 16 17 16 15 15 13 12 10 11 10 8 7 7 8 9 12 16 17 17 18 18 21 21 20 20 19 20 20 19 20 21 19 19 19 19 19 19 17 15 15 14 13 16 14 13 8 6 5 4 4 3 3 4 13 15 16 18 18 18 16 16 14 15 16 18 16 15
5 6 6 5 5 6 4 5 5 6 5 5 5 4 6 9 14 15 16 16 17 16 16 14 12 12 14 12 11 7 7 7 10 10 12 14 15 13 17 18 20 19 18 18 17 18 19 19 19 18 18 18 18 18 18 17 16 14 12 13 14 13 8 6 6 4 4 4 3 3 8 14 16 16 17 18 18 18 16 16 16 17 17 16 16
4 7 6 6 5 6 4 5 5 7 6 6 5 5 6 8 10 12 14 15 14 15 16 14 13 13 13 12 11 8 5 4 6 6 9 8 13 16 17 17 19 17 17 17 17 16 17 19 19 18 16 16 16 17 17 16 15 13 12 13 13 8 7 6 6 4 3 3 3 4 10 13 15 16 17 18 17 18 16 15 17 17 17 17 16
7 6 8 7 6 7 6 6 5 7 7 6 5 5 5 6 7 8 6 9 11 12 11 10 8 9 13 10 8 7 6 4 5 6 6 9 12 15 16 17 18 17 16 17 16 16 17 17 17 17 16 13 14 10 11 14 15 13 13 13 9 6 6 6 6 5 3 3 4 4 8 14 18 17 18 18 18 18 16 16 17 17 17 16 16
8 7 7 9 7 5 7 7 7 7 7 6 5 6 5 5 5 7 7 9 7 6 7 8 8 7 6 8 7 7 6 4 4 6 6 11 12 13 14 15 15 16 14 14 15 17 18 18 15 13 13 13 10 8 8 7 8 12 10 8 6 6 6 6 5 4 4 3 3 5 8 16 18 18 19 19 17 17 16 16 16 16 17 17 17
11 9 8 7 8 7 7 8 9 7 7 5 6 6 6 5 5 6 7 7 6 5 5 6 6 7 7 6 7 8 7 5 5 9 10 8 9 12 15 15 16 15 14 9 10 14 16 12 13 12 10 7 8 8 8 7 6 6 6 6 6 6 6 6 5 4 3 3 3 6 11 17 18 18 20 19 18 17 17 17 15 16 17 17 18
10 9 8 8 9 9 7 8 9 8 7 6 7 6 6 6 6 6 6 6 6 6 6 7 7 7 6 6 7 7 8 7 5 4 5 7 8 8 8 7 7 7 10 7 6 4 7 7 5 6 5 6 8 8 8 7 6 6 6 6 6 5 6 5 5 4 3 3 3 7 13 16 19 18 18 19 18 17 17 16 16 15 16 17 16
6 8 10 8 9 10 8 7 8 8 7 7 7 6 7 6 7 6 6 5 6 6 5 6 7 8 7 8 8 9 8 8 6 5 5 6 8 7 7 7 6 7 7 8 8 3 4 5 5 4 4 6 7 7 7 8 7 7 6 5 6 5 6 5 5 4 3 3 3 6 6 16 17 18 18 18 19 18 17 17 16 16 15 14 15
8 10 10 9 9 10 10 8 8 8 9 8 6 7 6 6 6 7 7 6 6 6 6 6 6 6 7 8 9 9 9 8 8 6 6 6 7 8 7 7 8 7 7 8 8 6 5 6 5 5 4 5 6 6 6 7 8 7 6 5 5 5 5 5 5 4 3 4 4 8 8 2 17 17 18 17 17 18 17 16 16 16 15 14 14
9 10 10 9 9 11 10 10 9 9 8 9 9 8 7 6 6 7 7 6 7 7 6 7 7 7 6 6 7 8 10 9 7 8 6 5 7 7 7 7 6 7 7 8 8 6 6 6 7 6 6 5 6 5 6 7 7 7 6 5 5 5 5 5 5 4 3 4 4 8 8 8 8 16 17 17 17 17 17 16 16 17 15 14 14
11 11 10 10 11 10 11 12 10 10 8 8 10 8 8 6 6 6 7 6 7 8 7 7 7 8 7 7 6 7 6 8 8 7 7 7 6 7 7 6 6 6 7 6 7 6 6 6 7 7 6 6 6 6 6 6 6 6 6 5 5 5 5 5 5 5 4 3 5 7 11 10 7 10 13 15 16 16 15 15 16 16 17 17 16
13 11 11 10 11 11 12 12 12 10 9 7 8 9 8 8 7 6 5 6 7 8 8 7 7 8 8 9 9 9 7 8 8 7 7 7 7 6 6 6 6 5 6 7 3 5 5 3 4 5 7 6 6 7 7 6 6 5 5 6 5 4 4 6 5 5 3 4 5 7 12 11 13 9 11 14 15 15 16 15 15 16 16 15 16
11 12 11 10 9 13 12 12 11 9 9 9 6 9 10 8 8 6 5 6 6 7 7 7 7 7 8 9 10 10 8 6 8 7 7 7 6 6 6 6 6 5 6 7 5 6 6 5 4 4 6 7 6 6 7 7 6 5 4 6 4 4 4 4 5 4 4 5 5 5 8 12 13 12 11 10 16 16 14 15 15 15 15 14 17
13 14 12 10 10 14 13 13 12 11 10 11 7 8 10 9 9 7 7 6 6 7 7 7 7 7 6 6 8 10 10 8 10 8 7 7 6 6 6 6 6 5 5 5 5 5 5 6 4 3 3 6 7 6 6 7 6 6 4 5 4 4 3 3 4 4 4 4 5 5 6 7 11 12 12 14 10 9 16 14 14 13 12 13 14
11 13 13 12 13 14 13 13 13 12 13 12 9 8 9 9 9 9 7 6 6 6 7 7 7 7 7 6 6 7 11 11 9 9 7 7 7 7 7 6 6 5 5 5 5 4 4 5 4 3 5 6 7 6 5 7 7 5 5 4 5 4 3 3 3 3 4 4 4 4 6 5 6 9 11 11 11 10 6 11 14 14 15 15 13
11 10 12 14 11 9 10 11 13 13 13 12 9 9 8 9 9 8 7 7 7 7 7 7 7 7 8 7 6 5 5 7 7 7 7 7 7 6 7 6 6 6 6 6 6 5 6 6 5 5 5 7 7 6 7 7 5 5 5 4 4 3 3 3 2 2 2 3 3 4 4 5 5 6 6 8 9 9 10 7 5 6 12 12 12
10 10 14 15 12 10 10 10 13 13 13 13 11 10 11 9 9 9 8 8 7 7 8 7 7 7 7 7 7 6 6 7 7 7 7 7 7 7 7 6 6 6 7 6 7 5 6 6 6 6 4 5 5 5 6 7 7 7 6 5 6 4 3 3 2 2 2 2 2 3 3 4 5 5 4 5 6 8 7 8 6 2 4 9 10
15 14 13 13 15 12 11 11 14 15 14 13 13 10 12 12 8 9 9 9 7 7 8 8 7 7 7 7 8 7 7 7 7 7 7 6 7 7 6 6 6 6 6 5 6 7 5 5 3 6 7 4 7 4 5 6 6 6 4 5 5 5 5 4 3 2 2 3 3 3 3 3 3 3 4 4 4 4 6 6 6 7 5 4 7
15 14 14 13 14 14 12 13 15 16 15 14 13 12 11 12 11 9 10 10 9 7 8 8 7 8 7 8 8 8 8 7 8 7 8 7 7 7 5 7 6 7 6 5 6 6 7 6 3 3 5 5 6 5 4 6 5 5 4 4 3 4 4 5 4 4 3 3 3 3 3 3 3 4 3 4 4 3 5 6 7 6 7 6 4
14 14 14 15 16 15 13 14 12 14 13 13 14 11 11 11 11 9 8 11 10 8 7 8 8 8 8 8 8 8 8 8 8 7 7 7 7 7 5 5 5 7 6 5 5 3 5 7 6 3 5 7 6 7 5 4 5 5 4 4 3 3 3 3 3 3 5 5 4 4 3 4 4 4 4 4 3 3 3 3 5 5 6 5 5
13 15 14 13 12 13 12 14 14 12 13 13 14 13 12 11 10 11 10 10 10 9 8 8 9 8 8 9 8 7 8 8 9 8 9 8 8 8 7 6 6 6 7 6 6 4 4 4 8 4 3 4 7 6 6 6 5 5 5 3 3 3 3 3 3 3 3 3 3 3 3 3 3 3 3 3 2 2 2 2 2 2 2 3 3
13 13 14 13 14 13 13 11 14 15 11 11 11 12 12 11 12 12 11 10 10 9 9 9 8 9 9 9 9 8 8 8 8 8 9 8 8 7 8 7 7 7 7 7 6 7 7 7 7 8 7 4 3 7 7 7 5 6 4 4 3 3 3 2 3 2 2 2 2 2 3 2 3 3 2 2 2 1 1 0 0 0 0 1 1
13 14 15 15 15 16 15 16 11 13 13 11 11 11 13 11 11 13 14 10 9 10 10 9 9 9 10 11 11 9 8 9 8 9 9 9 8 7 8 7 7 8 8 8 8 7 6 6 6 6 8 6 2 3 4 8 8 4 3 3 2 2 2 1 1 1 1 1 1 2 2 2 2 1 1 2 3 2 3 3 2 1 1 0 2
13 15 18 18 16 16 17 16 14 11 13 14 12 11 12 13 12 11 10 11 11 11 10 10 10 9 10 10 11 11 11 10 9 9 10 10 9 9 9 9 8 8 7 7 7 6 7 7 7 5 2 6 3 5 6 7 2 5 5 1 1 2 1 1 1 1 0 0 1 1 1 2 1 0 1 1 0 0 1 2 2 2 2 1 1
19 19 19 18 17 17 16 16 15 15 13 13 12 13 11 11 13 11 12 8 9 11 11 10 10 10 10 10 10 12 12 10 11 10 11 11 11 10 10 9 9 8 8 8 8 8 8 9 9 9 7 2 4 2 6 4 5 4 3 4 1 1 4 2 1 2 1 1 1 1 1 2 2 0 1 0 0 1 1 0 0 0 1 1 1
15 15 15 18 17 16 16 16 16 16 15 13 12 12 11 11 11 12 12 13 10 10 10 9 10 10 10 9 9 10 12 12 12 12 11 11 12 12 10 10 10 9 10 10 10 10 9 8 7 8 9 8 4 2 0 5 6 9 4 3 2 4 1 5 6 3 0 1 2 3 2 1 0 0 1 1 1 0 1 0 1 1 1 1 1
17 18 18 18 15 20 19 19 17 17 15 15 15 11 7 9 9 9 10 9 9 11 11 11 11 10 11 10 11 10 11 12 12 12 11 12 11 10 10 10 10 9 8 9 10 11 11 9 10 9 10 11 7 4 1 3 8 4 8 5 2 0 4 1 3 1 2 0 1 1 0 0 0 0 1 2 1 2 2 2 2 2 3 4 5
18 19 19 20 19 18 19 18 15 15 16 16 17 14 11 11 12 12 13 13 14 14 16 17 14 13 12 12 11 11 11 10 10 11 10 9 10 10 10 11 10 10 10 10 9 8 8 10 10 11 9 7 11 9 4 1 4 5 2 2 2 4 5 2 2 1 2 1 1 1 1 1 2 2 2 3 3 3 3 3 2 3 1 1 1
21 19 18 18 20 19 19 19 17 15 16 16 17 14 15 12 15 17 16 17 18 12 12 13 13 10 10 11 11 10 11 12 11 11 10 11 11 10 10 10 12 11 9 9 9 10 10 9 7 8 9 8 8 10 11 8 3 1 2 2 2 2 4 6 3 2 3 2 3 1 0 1 1 2 3 4 3 2 2 2 2 1 1 1 1
22 18 18 17 19 18 19 19 16 15 16 16 18 15 16 16 15 15 14 14 17 16 15 15 13 12 11 12 10 10 11 11 12 11 11 11 11 11 11 9 10 11 10 10 11 9 7 5 7 7 7 8 9 11 10 9 12 6 3 3 3 3 4 5 3 5 6 6 0 2 1 1 1 2 3 3 2 3 3 2 1 2 1 2 3
16 18 18 18 18 18 19 18 18 17 16 19 19 19 15 16 16 14 13 12 12 12 12 12 13 13 14 11 11 11 11 11 12 12 11 12 11 12 12 11 9 10 10 9 8 9 11 11 9 7 8 6 6 7 10 11 9 9 8 2 3 4 5 5 3 4 4 3 0 1 1 1 1 0 1 1 2 2 3 3 1 2 2 3 2
16 17 17 17 17 16 18 19 19 17 16 19 19 20 19 14 14 16 17 13 11 10 12 14 14 14 15 13 12 11 10 10 10 11 11 11 11 10 11 12 11 10 10 10 9 10 9 10 11 10 10 10 6 8 9 9 8 7 10 9 6 4 4 2 2 3 4 3 5 3 2 2 2 1 3 4 4 2 0 1 2 2 3 3 2
11 12 14 15 15 15 18 20 21 17 17 19 20 21 19 16 15 16 18 16 14 13 12 15 14 14 14 14 13 11 11 11 10 9 11 11 10 11 12 12 10 9 10 10 10 11 10 11 10 10 10 11 9 8 7 8 7 8 7 9 10 11 10 8 8 4 5 2 3 1 0 3 1 0 1 4 4 4 3 1 2 3 3 3 2
Wind_Direction
262 186 181 181 146 168 177 176 175 161 160 169 183 204 197 169 172 175 176 175 170 170 175 166 153 154 157 149 147 138 142 136 140 134 114 86 40 50 88 172 168 168 171 166 149 152 151 155 166 150 141 140 139 134 131 130 124 117 114 109 109 108 106 107 108 106 99 96 107 107 101 108 109 109 109 108 104 96 88 84 88 86 78 88 89
210 220 142 166 180 186 177 171 183 183 183 178 180 197 184 179 173 176 173 176 166 169 171 163 157 154 144 148 142 145 150 143 143 139 122 95 66 95 156 160 170 170 172 166 152 154 148 156 168 145 142 141 134 134 132 127 118 116 113 109 107 105 103 101 93 79 70 60 42 73 108 111 112 109 113 112 108 101 95 93 90 86 87 90 88
166 192 150 174 179 191 185 179 191 196 192 189 184 196 182 177 178 169 171 178 163 167 167 165 157 147 149 142 143 147 145 143 130 144 120 94 97 139 157 162 176 168 166 165 149 155 155 156 156 156 150 138 135 133 128 121 119 117 114 110 108 108 105 101 94 82 71 57 49 43 45 89 108 114 113 111 106 104 100 98 94 94 96 94 93
166 189 161 173 185 190 189 187 186 190 190 200 197 185 179 179 167 169 181 172 161 168 164 162 158 150 145 143 140 136 131 127 132 121 98 84 100 138 164 169 173 167 162 161 153 154 155 159 161 158 144 137 133 132 126 122 121 118 114 113 112 109 105 101 96 82 66 55 51 46 47 49 103 117 118 112 107 101 97 92 102 101 95 93 93
196 179 181 174 197 204 189 185 182 191 199 197 194 186 181 172 167 174 173 166 166 172 164 160 150 143 143 141 134 130 126 125 125 120 92 85 103 128 158 169 165 162 158 151 151 152 154 157 160 146 140 135 133 132 127 124 121 119 117 115 112 109 107 103 94 79 65 59 48 49 38 59 81 108 115 107 104 102 102 103 97 97 96 96 96
209 182 189 184 199 208 203 193 189 194 195 195 198 184 180 175 172 164 164 161 163 167 157 153 149 146 143 140 137 132 120 125 124 116 93 87 99 136 150 164 162 156 150 143 142 145 143 148 147 142 139 135 134 131 127 124 121 120 119 116 113 111 107 102 93 84 75 62 50 46 48 49 47 103 108 106 105 106 105 106 103 93 93 91 89
216 186 192 201 199 206 208 200 196 197 191 188 190 184 182 176 171 162 158 155 161 158 152 155 153 150 143 137 136 132 128 126 128 123 100 86 84 109 137 157 157 146 143 140 138 140 143 147 146 139 136 135 133 129 127 125 123 122 121 118 116 113 110 105 97 89 80 67 59 47 50 55 55 82 108 107 113 111 108 106 97 94 92 88 91
215 200 194 204 201 202 203 212 194 201 192 181 184 186 182 174 170 171 155 160 161 160 152 151 149 143 139 135 135 136 133 130 131 127 110 88 81 92 111 139 146 141 137 137 134 134 134 134 134 131 132 133 133 129 129 127 124 124 121 118 116 115 113 107 97 93 85 79 65 57 52 45 37 63 102 98 100 98 97 94 93 94 89 86 80
215 215 209 206 212 199 196 209 207 196 190 185 180 183 181 175 174 175 162 171 168 164 157 149 140 134 131 132 137 138 135 134 136 128 115 100 79 71 91 117 130 138 144 136 134 137 139 139 136 131 132 135 133 130 126 123 124 127 124 119 115 114 110 101 98 92 86 85 75 71 65 61 57 87 101 102 104 109 106 102 100 95 93 94 94
225 217 211 209 214 207 191 202 203 200 187 180 178 183 183 185 180 177 174 165 175 161 158 142 137 131 129 131 136 138 135 137 139 131 120 110 104 83 81 128 148 138 135 134 135 137 129 129 129 128 129 131 131 126 122 122 124 126 125 123 120 117 109 102 98 91 97 87 78 73 76 81 77 88 105 103 104 101 98 100 102 95 102 95 95
224 221 213 209 213 208 195 203 196 192 183 179 179 188 189 191 190 178 171 168 159 158 151 163 141 134 130 133 136 137 136 138 139 130 122 118 114 106 88 80 91 125 134 133 129 125 125 125 125 123 125 129 129 124 122 120 121 121 124 124 122 117 110 107 98 95 89 81 69 58 78 83 78 111 104 107 107 108 93 87 85 90 90 90 88
223 225 221 212 209 207 196 217 195 183 180 180 184 196 192 194 193 173 180 171 164 156 150 135 136 139 135 133 139 140 139 141 139 131 127 121 120 114 111 103 83 77 125 127 126 127 126 125 124 121 125 128 127 120 120 123 118 118 124 125 122 117 115 106 95 91 82 75 64 56 67 95 93 110 108 111 114 98 92 97 95 94 93 90 84
219 230 228 210 201 204 202 219 201 184 185 183 191 200 197 194 192 178 180 170 173 155 143 152 149 141 141 135 138 141 141 142 140 134 128 125 123 121 116 113 107 106 100 115 122 126 127 126 124 122 123 122 125 118 109 107 115 125 127 123 121 120 113 103 101 93 83 73 55 46 67 95 124 110 106 106 106 103 96 93 97 94 93 89 91
216 224 223 198 186 203 214 230 227 192 183 185 191 197 194 192 189 182 179 163 167 149 156 138 139 138 149 137 140 142 142 142 139 133 131 130 129 126 123 120 121 116 112 117 117 117 120 123 124 123 123 125 118 100 101 106 121 128 124 123 121 115 107 97 99 95 92 83 70 57 55 85 123 116 107 101 102 105 109 109 100 94 92 90 89
220 223 218 183 171 199 213 226 233 189 200 201 194 195 191 198 199 182 77 170 165 146 147 136 142 152 150 136 143 144 141 139 138 135 134 133 130 128 127 124 120 118 122 126 116 119 122 121 121 122 122 116 100 101 101 109 117 119 120 120 117 113 108 102 96 98 95 93 84 77 67 68 113 114 109 107 109 108 107 106 100 99 96 92 95
225 228 203 191 165 174 204 235 242 161 108 86 59 41 181 197 143 82 127 155 96 135 147 144 153 160 138 132 143 148 141 139 139 140 139 136 132 133 132 130 129 125 125 133 131 130 125 123 125 125 117 112 106 99 102 108 112 114 114 116 111 109 107 104 101 100 100 97 95 90 87 85 109 112 111 103 102 104 108 104 100 100 98 95 96
226 235 181 176 151 151 186 217 130 114 109 90 66 51 86 93 103 119 127 122 122 159 133 136 121 125 131 132 138 142 138 136 135 129 138 140 136 132 124 129 130 129 133 135 125 127 127 126 126 126 120 113 106 102 103 106 109 108 110 111 109 107 105 102 102 103 106 112 110 104 106 118 123 117 113 107 104 106 107 105 101 99 97 100 100
219 211 186 156 156 157 158 153 126 120 113 94 80 77 97 112 103 100 99 110 113 109 112 106 108 118 88 74 116 125 124 121 128 133 138 138 135 135 137 131 121 128 129 131 131 130 129 127 125 127 122 118 111 107 107 108 110 111 111 108 106 107 104 104 102 103 107 112 110 113 114 132 121 119 115 110 107 106 107 111 109 105 103 103 108
197 198 193 161 164 156 163 145 130 126 116 118 123 102 114 125 117 118 118 122 128 126 120 116 112 109 99 89 70 108 108 98 114 124 127 131 134 135 136 134 135 129 128 132 134 134 133 129 130 129 126 121 114 112 113 112 111 109 108 108 108 105 101 98 96 99 107 108 115 125 156 124 121 118 113 112 113 115 116 120 118 112 106 105 104
194 188 195 182 169 167 166 138 133 135 131 133 133 126 130 136 126 126 128 128 129 126 124 123 118 111 106 105 95 86 85 91 101 105 114 128 134 134 133 135 130 134 131 132 133 135 131 128 127 132 128 119 109 107 108 108 108 108 105 106 105 99 95 94 98 98 109 118 126 145 135 129 127 123 120 117 117 114 113 119 118 111 112 114 113
213 187 192 189 179 169 178 139 144 143 139 131 135 138 135 134 121 123 128 130 130 130 126 125 122 118 112 113 110 100 90 98 98 92 94 105 115 126 130 132 131 129 130 129 128 130 136 133 131 132 127 115 109 105 107 109 108 108 105 107 100 96 100 98 100 105 109 129 133 137 131 128 126 126 125 123 122 113 118 120 119 118 119 118 117
207 187 190 188 186 173 182 151 148 145 144 137 138 141 134 130 122 122 120 123 126 127 129 129 129 126 123 122 120 118 117 116 109 103 101 106 111 118 125 130 131 131 131 129 135 140 142 140 135 134 125 116 100 96 105 109 108 108 107 102 95 97 96 104 105 112 124 130 129 140 139 135 130 130 129 125 122 119 122 125 124 122 120 118 116
203 203 183 187 188 174 175 161 153 154 150 146 140 145 140 134 134 130 128 128 131 130 130 131 131 124 121 125 125 123 122 125 129 130 118 114 117 117 121 119 120 123 130 139 144 144 142 141 133 128 113 102 95 96 101 101 102 101 97 93 97 95 97 96 102 115 128 137 131 148 155 137 131 131 127 126 124 127 126 125 125 126 123 120 116
197 195 185 171 176 180 182 162 159 160 155 154 144 147 150 148 145 141 136 135 136 134 119 106 102 118 124 123 126 126 121 113 118 120 118 117 121 123 123 117 116 120 125 125 128 136 135 127 127 118 111 108 100 102 104 101 99 95 93 96 98 100 96 97 100 108 120 125 147 164 141 133 131 134 131 125 128 129 129 126 126 125 124 122 121
191 174 173 176 177 173 175 166 160 160 161 162 151 153 151 152 149 146 145 142 140 141 138 128 127 122 126 127 125 123 120 121 117 115 118 124 124 123 120 118 125 119 116 103 80 70 97 109 102 94 97 104 104 112 115 111 109 106 100 99 101 98 94 95 98 99 115 132 153 151 138 139 136 136 131 130 136 137 135 131 129 127 126 125 121
177 172 179 174 175 175 174 168 161 164 169 169 160 150 149 159 154 152 146 143 143 141 140 131 132 135 141 134 128 127 126 123 123 124 124 126 124 122 124 132 133 128 121 119 131 159 116 119 116 96 92 104 100 106 118 124 121 111 108 106 106 100 98 94 95 93 100 104 107 93 118 144 140 137 134 134 139 141 140 139 135 133 129 126 122
196 189 176 180 168 171 172 170 170 171 176 166 156 154 160 166 159 156 150 154 149 144 146 138 139 141 144 140 140 140 132 133 134 136 132 132 126 126 128 135 138 134 136 130 134 144 137 129 128 119 104 96 98 106 115 119 118 118 119 118 112 109 104 97 88 85 76 82 81 73 46 117 143 141 137 141 138 138 138 135 135 135 130 127 126
201 193 182 177 166 171 170 171 175 174 178 167 161 165 163 167 168 158 161 159 153 154 150 149 146 147 144 142 143 142 141 140 141 136 137 134 131 127 127 127 130 133 130 130 133 142 142 142 143 134 123 114 107 107 113 113 112 120 124 121 116 111 105 101 95 79 75 81 74 65 56 43 136 142 144 141 140 141 140 140 140 135 134 134 130
203 200 188 182 177 170 164 174 176 173 175 170 163 165 164 168 168 170 167 164 157 156 156 152 154 148 151 146 145 136 142 138 150 150 146 139 133 131 127 123 124 123 118 122 133 142 148 147 145 141 130 125 117 109 108 107 114 121 124 123 117 112 109 105 99 90 75 75 82 67 64 59 54 147 141 145 139 143 139 143 144 139 137 139 139
202 197 191 188 180 173 167 173 176 176 166 173 174 163 167 173 174 174 175 170 162 157 154 156 159 154 157 158 153 147 156 153 147 149 145 140 136 127 120 128 128 126 118 119 133 128 135 142 135 139 136 130 122 117 114 115 114 119 121 121 116 120 121 116 109 102 93 86 73 74 70 62 59 49 138 139 146 147 145 142 142 143 140 139 137
195 198 198 193 177 176 174 173 175 172 164 175 190 169 162 177 173 171 180 179 162 154 157 156 154 164 165 165 157 153 150 150 146 152 148 142 136 134 131 132 129 141 146 141 143 141 139 146 156 155 140 129 121 121 119 118 117 111 116 115 121 112 107 107 109 111 101 93 87 81 70 66 62 61 57 131 148 148 145 143 142 143 144 146 142
197 198 197 189 183 180 176 175 175 169 168 177 183 176 169 172 171 173 183 180 164 160 157 156 159 159 162 166 166 158 152 156 153 153 146 135 133 130 135 135 140 140 145 135 137 136 149 143 139 132 124 115 117 113 119 120 119 120 111 108 106 105 107 110 110 110 111 102 99 94 89 80 75 66 63 64 70 135 146 145 147 146 146 149 144
206 197 192 188 189 182 180 177 174 171 171 177 180 175 171 169 172 177 180 172 171 164 159 164 161 160 159 164 171 175 157 159 157 148 145 139 141 140 143 143 146 143 138 135 124 120 118 116 111 117 115 113 115 114 110 114 121 116 109 105 104 96 90 95 97 103 108 104 101 105 105 101 89 77 72 67 70 65 124 141 150 152 149 152 149
198 198 190 193 187 187 182 177 177 174 172 174 178 172 171 171 175 175 176 171 171 170 165 163 161 162 160 164 169 165 149 143 141 140 143 139 136 134 137 138 142 140 131 129 130 138 132 128 137 128 128 127 128 131 124 116 113 115 112 115 100 107 106 92 88 94 100 98 96 91 87 91 93 94 82 80 73 62 66 70 76 146 161 155 155
197 200 199 191 185 188 183 183 177 177 172 174 180 175 170 174 174 176 179 175 173 174 168 163 163 167 160 165 166 159 154 143 137 138 139 135 130 131 130 135 131 129 130 139 132 129 133 140 143 126 122 110 116 126 126 128 132 133 139 134 129 114 85 92 66 60 42 44 57 69 63 66 92 91 87 85 71 64 54 51 61 106 141 146 153
197 198 199 192 191 189 186 186 180 178 176 174 178 174 173 171 181 174 175 175 174 177 173 168 165 162 165 167 167 160 157 150 140 137 132 134 132 133 134 132 130 118 119 123 121 127 127 120 122 136 129 125 125 114 120 129 132 132 135 133 138 133 127 117 104 71 51 61 41 43 42 41 45 72 75 74 71 54 47 42 47 51 83 104 154
194 193 194 193 194 190 190 190 187 183 178 173 175 171 170 172 175 177 173 173 176 177 176 167 164 164 169 169 171 163 161 154 144 140 133 137 132 129 138 130 129 126 119 121 122 134 134 126 104 119 130 138 136 133 122 130 124 117 111 113 115 127 133 145 142 134 100 94 85 71 70 61 54 61 56 49 41 34 37 48 36 45 44 38 72
192 193 194 193 192 188 192 193 189 188 181 174 174 169 169 169 171 178 173 174 176 174 174 167 170 167 164 172 172 167 163 154 147 141 133 134 132 130 131 130 130 124 128 125 121 117 125 132 119 87 128 128 139 144 144 127 117 108 90 82 74 78 84 93 106 117 132 138 132 129 133 127 108 104 89 88 79 69 65 53 65 64 61 50 39
190 191 192 196 191 189 188 196 189 192 187 180 174 171 169 173 175 175 178 177 174 170 170 174 172 166 171 168 168 167 162 153 149 145 138 142 141 143 144 149 137 133 130 130 132 132 128 133 132 107 78 121 147 145 138 124 107 98 89 70 71 72 74 69 98 100 89 115 120 103 96 77 89 82 98 85 81 98 107 95 116 120 109 102 66
191 187 190 192 193 191 189 190 191 188 189 180 180 174 172 177 179 176 181 183 173 167 172 179 171 173 169 165 167 167 160 155 152 148 140 142 144 151 149 154 147 141 140 143 152 153 155 143 140 131 117 72 78 130 125 110 84 85 83 63 70 81 49 49 64 66 85 102 100 105 97 96 85 103 88 88 81 71 60 42 63 102 90 54 58
189 186 189 193 195 192 188 193 189 182 186 185 184 180 174 175 180 183 179 177 172 169 173 177 178 178 170 169 166 165 161 155 153 149 148 147 151 153 153 159 155 154 157 164 160 159 156 150 142 134 136 126 82 115 134 127 120 70 48 39 11 352 78 76 57 45 47 51 71 102 112 96 90 93 94 115 128 143 161 164 164 161 188 330 315
195 191 192 193 193 193 193 193 188 188 190 190 186 186 180 177 177 181 175 173 169 171 176 178 182 178 175 173 168 164 163 162 161 154 153 154 155 162 166 165 162 162 159 150 153 146 146 147 146 119 104 138 136 158 160 121 114 155 136 115 357 341 341 6 314 282 193 59 86 102 92 127 149 140 42 55 59 119 168 178 177 192 218 218 267
189 192 195 189 191 193 195 191 190 192 194 194 189 192 185 175 174 174 170 170 176 172 174 180 177 177 180 178 174 165 162 165 165 162 161 164 164 165 171 163 165 156 149 156 157 157 163 161 164 153 136 82 93 156 166 145 127 109 102 91 214 182 309 336 280 248 230 186 123 165 179 181 213 95 85 83 4 335 331 18 43 336 305 290 299
189 191 191 192 193 193 194 191 190 191 195 196 197 198 188 177 173 165 167 165 171 169 165 170 177 175 179 180 178 171 167 167 170 170 169 170 169 171 166 168 169 168 163 161 166 167 166 166 160 157 147 137 141 182 166 146 130 134 148 174 196 141 212 253 211 275 296 250 206 222 177 223 325 22 58 308 271 347 331 76 209 217 231 241 257
191 189 189 191 191 193 192 192 190 189 191 195 196 192 176 168 163 156 156 152 147 162 164 175 178 181 179 180 184 179 174 170 174 174 171 171 172 167 168 169 167 170 163 164 170 175 175 169 162 156 168 158 153 136 174 162 154 162 134 119 84 141 217 227 120 279 30 50 344 316 302 184 219 196 209 259 240 227 214 224 221 195 198 203 209
195 195 191 191 188 191 190 191 190 188 187 186 191 192 191 177 168 163 167 168 172 170 179 176 178 182 183 181 181 179 176 174 175 172 171 168 172 173 171 167 168 170 173 173 172 164 167 170 178 166 164 175 153 142 140 276 167 145 134 138 170 173 172 210 106 166 33 56 343 33 184 216 188 212 235 243 254 245 213 239 226 244 295 340 346
202 193 191 191 189 186 186 187 187 187 186 181 181 186 194 192 185 182 180 179 177 185 172 170 173 177 175 181 179 183 180 175 178 177 174 175 174 173 175 179 169 174 171 167 171 179 175 176 164 165 171 153 145 153 162 164 91 71 92 96 96 71 125 126 184 120 79 338 8 325 349 2 237 193 228 235 251 285 280 244 254 292 296 241 235
199 188 191 189 188 185 183 185 186 185 184 180 181 185 190 195 194 190 185 187 184 179 175 174 170 165 175 179 179 181 181 182 179 181 176 175 175 175 177 183 181 168 168 176 178 175 162 154 172 170 154 165 164 157 162 164 166 174 129 110 71 57 55 79 113 152 149 143 269 336 155 18 58 206 226 262 268 248 287 319 275 269 241 236 216
195 191 191 188 186 186 185 182 184 184 183 179 182 187 192 194 197 196 192 194 187 174 170 167 168 169 173 179 179 180 181 183 183 180 180 178 178 177 176 180 185 169 170 175 176 169 169 164 166 162 166 172 175 167 159 179 173 161 144 113 105 71 57 65 76 55 120 111 269 231 244 324 30 328 351 249 241 232 238 262 274 257 254 264 238
200 198 192 186 186 182 182 182 186 184 183 181 183 186 192 194 197 200 199 191 180 174 172 171 172 172 174 176 179 179 180 181 184 183 179 182 178 176 180 180 181 173 170 174 169 168 168 172 173 172 170 171 176 169 177 177 183 160 169 154 143 105 64 57 48 72 48 82 164 204 216 130 133 291 345 351 343 318 246 246 285 290 287 275 278
203 195 192 189 185 186 185 185 187 184 182 183 183 185 188 194 202 200 199 193 185 175 178 176 171 171 174 175 178 179 178 181 180 183 182 179 184 180 182 183 177 176 170 164 172 173 171 172 175 172 175 174 173 173 174 183 171 163 169 167 158 156 172 172 181 165 130 128 77 121 341 247 171 27 311 328 313 298 312 322 283 293 278 278 286